FW7989 Weather Reports


Display with metric or nautical units.
time (UTC)temp
F
wind
direction
speed
MPH
gust
MPH
rain 1hr
in
rain 24hr
in
rain mn
in
humidity
%
barometer
mb
20260507210559 52 0 0.0 2.0 0.00 0.00 0.00 78 1015.4
20260507210103 52 0 1.0 2.0 0.00 0.00 0.00 78 1015.4
20260507205602 52 57 1.0 2.0 0.00 0.00 0.00 78 1015.4
20260507205059 52 57 1.0 2.0 0.00 0.00 0.00 79 1015.4
20260507204606 52 57 1.0 2.0 0.00 0.00 0.00 79 1015.4
20260507204058 52 0 0.0 1.0 0.00 0.00 0.00 79 1015.4
20260507203559 52 0 0.0 1.0 0.00 0.00 0.00 79 1015.4
20260507203110 52 0 0.0 2.0 0.00 0.00 0.00 78 1015.2
20260507202558 53 0 0.0 2.0 0.00 0.00 0.00 77 1015.3
20260507202058 53 57 1.0 2.0 0.00 0.00 0.00 77 1015.2
20260507201613 53 57 1.0 2.0 0.00 0.00 0.00 77 1015.1
20260507201059 53 57 0.0 2.0 0.00 0.00 0.00 78 1015.1
20260507200601 53 0 0.0 1.0 0.00 0.00 0.00 78 1015.1
20260507200104 53 57 0.0 2.0 0.00 0.00 0.00 77 1015.0
20260507195604 54 0 0.0 2.0 0.00 0.00 0.00 77 1015.0
20260507195102 54 28 0.0 2.0 0.00 0.00 0.00 75 1015.0
20260507194558 54 0 0.0 2.0 0.00 0.00 0.00 76 1015.0
20260507194103 54 347 1.0 2.0 0.00 0.00 0.00 75 1015.0
20260507193558 54 340 0.0 1.0 0.00 0.00 0.00 76 1015.0
20260507193101 54 0 0.0 0.0 0.00 0.00 0.00 77 1014.9
20260507192558 54 0 0.0 0.0 0.00 0.00 0.00 76 1014.9
20260507192058 55 0 0.0 1.0 0.00 0.00 0.00 76 1014.7
20260507191558 55 0 0.0 1.0 0.00 0.00 0.00 74 1014.9
20260507191057 55 0 0.0 1.0 0.00 0.00 0.00 76 1014.7
20260507190604 55 0 0.0 2.0 0.00 0.00 0.00 75 1014.6
20260507190057 55 0 0.0 2.0 0.00 0.00 0.00 73 1014.6
20260507185557 55 336 0.0 2.0 0.00 0.00 0.00 72 1014.6
20260507185102 55 336 0.0 4.0 0.00 0.00 0.00 72 1014.6
20260507184556 55 319 1.0 4.0 0.00 0.00 0.00 73 1014.6
20260507184059 56 288 2.0 4.0 0.00 0.00 0.00 73 1014.7
20260507183558 56 319 2.0 4.0 0.00 0.00 0.00 73 1014.7
20260507183058 56 270 2.0 6.0 0.00 0.00 0.00 71 1014.8
20260507182559 57 277 1.0 6.0 0.00 0.00 0.00 72 1014.8
20260507182102 57 291 3.0 6.0 0.00 0.00 0.00 69 1014.7
20260507181559 58 298 2.0 3.0 0.00 0.00 0.00 70 1014.6
20260507181058 58 288 2.0 4.0 0.00 0.00 0.00 70 1014.6
20260507180602 58 327 1.0 4.0 0.00 0.00 0.00 67 1014.6
20260507180058 59 302 1.0 4.0 0.00 0.00 0.00 67 1014.6
20260507175558 59 344 1.0 2.0 0.00 0.00 0.00 66 1014.5
20260507175058 59 0 0.0 4.0 0.00 0.00 0.00 65 1014.6
20260507174600 60 0 1.0 4.0 0.00 0.00 0.00 65 1014.6
20260507174059 59 324 2.0 4.0 0.00 0.00 0.00 67 1014.5
20260507173559 59 306 1.0 4.0 0.00 0.00 0.00 66 1014.5
20260507173100 59 295 2.0 6.0 0.00 0.00 0.00 66 1014.5
20260507172601 59 352 3.0 7.0 0.00 0.00 0.00 66 1014.5
20260507172059 59 311 3.0 7.0 0.00 0.00 0.00 65 1014.6
20260507171607 59 294 1.0 5.0 0.00 0.00 0.00 68 1014.5
20260507171059 59 243 2.0 5.0 0.00 0.00 0.00 70 1014.5
20260507170559 59 269 2.0 8.0 0.00 0.00 0.00 68 1014.6
20260507170059 59 292 3.0 8.0 0.00 0.00 0.00 67 1014.5
20260507165558 59 317 2.0 7.0 0.00 0.00 0.00 69 1014.5
20260507165100 59 352 4.0 8.0 0.00 0.00 0.00 70 1014.5
20260507164602 59 317 4.0 8.0 0.00 0.00 0.00 68 1014.5
20260507164058 60 284 1.0 7.0 0.00 0.00 0.00 67 1014.5
20260507163603 60 251 4.0 7.0 0.00 0.00 0.00 69 1014.6
20260507163058 61 234 3.0 7.0 0.00 0.00 0.00 63 1014.5
20260507162558 61 291 1.0 10.0 0.00 0.00 0.00 63 1014.5
20260507162058 61 229 4.0 10.0 0.00 0.00 0.00 64 1014.5
20260507161600 61 166 3.0 10.0 0.00 0.00 0.00 58 1014.5
20260507161059 61 221 5.0 13.0 0.00 0.00 0.00 55 1014.5
20260507160559 61 232 6.0 13.0 0.00 0.00 0.00 57 1014.6
20260507160106 62 205 5.0 11.0 0.00 0.00 0.00 55 1014.6
20260507155558 62 198 4.0 9.0 0.00 0.00 0.00 59 1014.6
20260507155058 61 154 4.0 9.0 0.00 0.00 0.00 59 1014.5
20260507154558 60 184 5.0 9.0 0.00 0.00 0.00 58 1014.6
20260507154059 60 206 2.0 10.0 0.00 0.00 0.00 59 1014.6
20260507153558 60 208 5.0 10.0 0.00 0.00 0.00 60 1014.5
20260507153102 60 280 5.0 10.0 0.00 0.00 0.00 61 1014.6
20260507152601 60 245 2.0 9.0 0.00 0.00 0.00 65 1014.6
20260507152059 60 277 4.0 9.0 0.00 0.00 0.00 61 1014.6
20260507151558 60 201 2.0 7.0 0.00 0.00 0.00 61 1014.6
20260507151058 60 211 3.0 7.0 0.00 0.00 0.00 61 1014.6
20260507150558 60 224 3.0 7.0 0.00 0.00 0.00 64 1014.6
20260507150058 60 202 1.0 6.0 0.00 0.00 0.00 61 1014.7
20260507145558 60 0 0.0 2.0 0.00 0.00 0.00 63 1014.7
20260507145058 59 0 0.0 3.0 0.00 0.00 0.00 66 1014.7
20260507144559 59 286 1.0 7.0 0.00 0.00 0.00 66 1014.8
20260507144059 59 235 1.0 7.0 0.00 0.00 0.00 67 1014.9
20260507143600 59 301 3.0 7.0 0.00 0.00 0.00 68 1014.9
20260507143100 59 291 3.0 7.0 0.00 0.00 0.00 69 1014.9
20260507142558 59 313 3.0 7.0 0.00 0.00 0.00 68 1014.9
20260507142059 59 274 2.0 6.0 0.00 0.00 0.00 67 1015.0
20260507141558 59 294 2.0 6.0 0.00 0.00 0.00 66 1015.0
20260507141139 59 313 2.0 4.0 0.00 0.00 0.00 68 1015.0
20260507140600 59 304 1.0 3.0 0.00 0.00 0.00 68 1015.1
20260507140109 60 0 1.0 4.0 0.00 0.00 0.00 65 1015.1
20260507135559 60 291 1.0 4.0 0.00 0.00 0.00 65 1015.0
20260507135103 60 309 1.0 3.0 0.00 0.00 0.00 67 1014.9
20260507134558 59 311 1.0 3.0 0.00 0.00 0.00 68 1015.0
20260507134058 59 296 1.0 3.0 0.00 0.00 0.00 66 1015.0
20260507133559 58 294 1.0 3.0 0.00 0.00 0.00 67 1015.0
20260507133056 58 332 0.0 3.0 0.00 0.00 0.00 71 1015.1
20260507132558 58 302 1.0 3.0 0.00 0.00 0.00 70 1015.1
20260507132059 57 0 1.0 3.0 0.00 0.00 0.00 71 1015.1
20260507131602 57 298 1.0 4.0 0.00 0.00 0.00 72 1015.1
20260507131059 57 298 2.0 4.0 0.00 0.00 0.00 72 1015.1
20260507130559 57 290 2.0 6.0 0.00 0.00 0.00 72 1015.1
20260507130057 57 306 3.0 6.0 0.00 0.00 0.00 75 1015.1
20260507125558 56 273 3.0 8.0 0.00 0.00 0.00 76 1015.2
20260507125058 56 289 3.0 9.0 0.00 0.00 0.00 74 1015.2
20260507124600 57 289 4.0 9.0 0.00 0.00 0.00 73 1015.2
20260507124059 57 316 2.0 9.0 0.00 0.00 0.00 73 1015.3
20260507123558 57 231 2.0 10.0 0.00 0.00 0.00 70 1015.4
20260507123100 57 282 5.0 10.0 0.00 0.00 0.00 66 1015.2
20260507122558 58 200 4.0 7.0 0.00 0.00 0.00 64 1015.2
20260507122059 58 189 3.0 8.0 0.00 0.00 0.00 61 1015.2
20260507121601 58 208 4.0 9.0 0.00 0.00 0.00 63 1015.2
20260507121058 58 182 5.0 9.0 0.00 0.00 0.00 60 1015.2
20260507120558 58 215 3.0 7.0 0.00 0.00 0.00 64 1015.2
20260507120059 59 192 3.0 7.0 0.00 0.00 0.00 61 1015.2
20260507115559 59 188 3.0 10.0 0.00 0.00 0.00 63 1015.2
20260507115058 59 150 4.0 11.0 0.00 0.00 0.00 63 1015.2
20260507114557 58 170 5.0 11.0 0.00 0.00 0.00 65 1015.3
20260507114058 58 173 5.0 11.0 0.00 0.00 0.00 64 1015.4
20260507113602 58 201 5.0 12.0 0.00 0.00 0.00 63 1015.4
20260507113059 58 165 7.0 12.0 0.00 0.00 0.00 62 1015.3
20260507112559 59 171 4.0 12.0 0.00 0.00 0.00 65 1015.3
20260507112101 59 254 4.0 12.0 0.00 0.00 0.00 63 1015.3
20260507111559 59 175 5.0 12.0 0.00 0.00 0.00 59 1015.3
20260507111058 60 211 6.0 12.0 0.00 0.00 0.00 64 1015.3
20260507110559 60 179 5.0 11.0 0.00 0.00 0.00 63 1015.3
20260507110101 60 146 5.0 12.0 0.00 0.00 0.00 64 1015.4
20260507105558 60 173 4.0 12.0 0.00 0.00 0.00 63 1015.4
20260507105058 59 180 6.0 12.0 0.00 0.00 0.00 62 1015.4
20260507104557 59 184 6.0 12.0 0.00 0.00 0.00 65 1015.5
20260507104059 59 178 6.0 10.0 0.00 0.00 0.00 64 1015.6
20260507103559 59 136 5.0 14.0 0.00 0.00 0.00 64 1015.4
20260507103057 59 156 6.0 14.0 0.00 0.00 0.00 63 1015.5
20260507102558 60 163 5.0 10.0 0.00 0.00 0.00 65 1015.5
20260507102058 60 188 4.0 10.0 0.00 0.00 0.00 67 1015.6
20260507101608 59 214 4.0 11.0 0.00 0.00 0.00 67 1015.6
20260507101058 59 201 5.0 11.0 0.00 0.00 0.00 68 1015.7
20260507100602 59 214 6.0 11.0 0.00 0.00 0.00 69 1015.7
20260507100101 60 203 6.0 11.0 0.00 0.00 0.00 66 1015.6
20260507095600 60 150 4.0 10.0 0.00 0.00 0.00 68 1015.6
20260507095059 60 159 4.0 11.0 0.00 0.00 0.00 67 1015.6
20260507094604 60 186 4.0 11.0 0.00 0.00 0.00 67 1015.5
20260507094101 60 0 4.0 9.0 0.00 0.00 0.00 70 1015.6
20260507093558 60 109 3.0 14.0 0.00 0.00 0.00 66 1015.4
20260507093100 59 135 3.0 14.0 0.00 0.00 0.00 70 1015.6
20260507092559 59 178 3.0 11.0 0.00 0.00 0.00 70 1015.6
20260507092058 59 188 5.0 11.0 0.00 0.00 0.00 72 1015.6
20260507091605 59 134 5.0 9.0 0.00 0.00 0.00 70 1015.7
20260507091058 58 171 5.0 9.0 0.00 0.00 0.00 74 1015.7
20260507090559 57 101 5.0 10.0 0.00 0.00 0.00 72 1015.8
20260507090113 57 178 5.0 10.0 0.00 0.00 0.00 74 1015.7
20260507085559 56 163 4.0 9.0 0.00 0.00 0.00 73 1015.8
20260507085059 56 134 4.0 8.0 0.00 0.00 0.00 72 1015.7
20260507084600 55 182 4.0 8.0 0.00 0.00 0.00 72 1015.7
20260507084059 55 103 4.0 8.0 0.00 0.00 0.00 73 1015.7
20260507083602 55 149 4.0 9.0 0.00 0.00 0.00 74 1015.7
20260507083102 54 128 4.0 9.0 0.00 0.00 0.00 75 1015.7
20260507082559 54 130 2.0 10.0 0.00 0.00 0.00 75 1015.7
20260507082059 53 90 5.0 10.0 0.00 0.00 0.00 74 1015.6
20260507081602 53 150 5.0 10.0 0.00 0.00 0.00 74 1015.7
20260507081059 53 150 3.0 9.0 0.00 0.00 0.00 76 1015.7
20260507080559 53 74 3.0 10.0 0.00 0.00 0.00 75 1015.7
20260507075558 52 96 4.0 10.0 0.00 0.00 0.00 74 1015.5
20260507075058 52 90 3.0 8.0 0.00 0.00 0.00 75 1015.5
20260507074559 52 150 3.0 8.0 0.00 0.00 0.00 74 1015.5
20260507074058 52 103 4.0 8.0 0.00 0.00 0.00 74 1015.5
20260507073558 52 88 1.0 8.0 0.00 0.00 0.00 75 1015.5
20260507073110 52 102 2.0 8.0 0.00 0.00 0.00 75 1015.4
20260507072559 52 0 3.0 8.0 0.00 0.00 0.00 75 1015.5
20260507072058 52 111 3.0 8.0 0.00 0.00 0.00 76 1015.5
20260507071600 51 91 3.0 8.0 0.00 0.00 0.00 77 1015.4
20260507071059 51 82 3.0 8.0 0.00 0.00 0.00 76 1015.4
20260507070559 51 78 2.0 8.0 0.00 0.00 0.00 76 1015.4
20260507070138 51 92 1.0 8.0 0.00 0.00 0.00 77 1015.4
20260507065602 50 114 4.0 8.0 0.00 0.00 0.00 77 1015.4
20260507065058 50 101 2.0 9.0 0.00 0.00 0.00 77 1015.3
20260507064600 50 98 2.0 9.0 0.00 0.00 0.00 78 1015.4
20260507064058 50 94 3.0 9.0 0.00 0.00 0.00 78 1015.3
20260507063559 49 100 1.0 8.0 0.00 0.00 0.00 78 1015.4
20260507063102 49 0 2.0 8.0 0.00 0.00 0.00 78 1015.4
20260507062558 49 98 3.0 8.0 0.00 0.00 0.00 79 1015.4
20260507062101 49 136 2.0 4.0 0.00 0.00 0.00 80 1015.5
20260507061559 48 0 0.0 4.0 0.00 0.00 0.00 80 1015.4
20260507061059 48 121 1.0 4.0 0.00 0.00 0.00 80 1015.4
20260507060558 48 150 0.0 4.0 0.00 0.00 0.00 80 1015.4
20260507060059 48 173 1.0 7.0 0.00 0.00 0.00 80 1015.3
20260507055559 48 123 1.0 7.0 0.00 0.00 0.00 80 1015.3
20260507055059 48 154 2.0 8.0 0.00 0.00 0.00 80 1015.3
20260507054613 47 108 3.0 8.0 0.00 0.00 0.00 79 1015.1
20260507054058 47 150 1.0 6.0 0.00 0.00 0.00 81 1015.0
20260507053600 47 119 2.0 5.0 0.00 0.00 0.00 81 1015.1
20260507053058 47 107 1.0 3.0 0.00 0.00 0.00 82 1015.0
20260507052600 47 86 0.0 2.0 0.00 0.00 0.00 82 1015.1
20260507052058 47 0 0.0 2.0 0.00 0.00 0.00 83 1015.1
20260507051556 47 0 0.0 2.0 0.00 0.00 0.00 82 1015.1
20260507051058 47 0 0.0 4.0 0.00 0.00 0.00 82 1015.1
20260507050558 46 0 0.0 4.0 0.00 0.00 0.00 81 1015.2
20260507050057 46 0 0.0 2.0 0.00 0.00 0.00 82 1015.0
20260507045601 46 0 0.0 1.0 0.00 0.00 0.00 81 1015.0
20260507045058 46 132 0.0 1.0 0.00 0.00 0.00 82 1015.0
20260507044603 46 0 0.0 0.0 0.00 0.00 0.00 83 1015.0
20260507044058 46 0 0.0 0.0 0.00 0.00 0.00 83 1015.0
20260507043558 46 0 0.0 0.0 0.00 0.00 0.00 82 1015.1
20260507043059 46 0 0.0 0.0 0.00 0.00 0.00 82 1014.9
20260507042559 47 0 0.0 1.0 0.00 0.00 0.00 82 1014.9
20260507042100 47 0 0.0 1.0 0.00 0.00 0.00 82 1014.9
20260507041605 47 0 0.0 3.0 0.00 0.00 0.00 80 1014.9
20260507041058 47 126 0.0 3.0 0.00 0.00 0.00 79 1014.9
20260507040601 47 109 0.0 3.0 0.00 0.00 0.00 78 1015.0
20260507040058 47 0 1.0 2.0 0.00 0.00 0.00 78 1015.0
20260507035558 47 0 0.0 2.0 0.00 0.00 0.00 79 1014.9
20260507035058 47 0 0.0 2.0 0.00 0.00 0.00 79 1015.0
20260507034604 47 0 0.0 4.0 0.00 0.00 0.00 79 1015.0
20260507034057 47 159 0.0 4.0 0.00 0.00 0.00 78 1014.9
20260507033558 47 144 0.0 2.0 0.00 0.00 0.00 76 1014.9
20260507033057 47 0 0.0 3.0 0.00 0.00 0.00 76 1014.9
20260507032559 47 0 0.0 3.0 0.00 0.00 0.00 76 1014.9
20260507032058 47 121 0.0 3.0 0.00 0.00 0.00 76 1014.9
20260507031600 47 0 0.0 3.0 0.00 0.00 0.00 77 1014.9
20260507031103 47 136 0.0 3.0 0.00 0.00 0.00 76 1014.8
20260507030559 47 128 0.0 3.0 0.00 0.00 0.00 77 1014.8
20260507030108 47 123 0.0 3.0 0.00 0.00 0.00 77 1014.9
20260507025558 47 0 1.0 3.0 0.00 0.00 0.00 76 1014.9
20260507025058 47 153 1.0 4.0 0.00 0.00 0.00 77 1014.9
20260507024617 47 129 1.0 4.0 0.00 0.00 0.00 77 1014.9
20260507024102 47 148 0.0 4.0 0.00 0.00 0.00 76 1014.9
20260507023601 48 138 1.0 4.0 0.00 0.00 0.00 76 1014.8
20260507023058 48 122 1.0 4.0 0.00 0.00 0.00 76 1014.8
20260507022558 48 155 2.0 4.0 0.00 0.00 0.00 75 1014.8
20260507022059 48 139 1.0 4.0 0.00 0.00 0.00 75 1014.7
20260507021617 48 125 2.0 4.0 0.00 0.00 0.00 75 1014.7
20260507021101 48 124 2.0 4.0 0.00 0.00 0.00 75 1014.8
20260507020559 48 108 2.0 4.0 0.00 0.00 0.00 75 1014.7
20260507020106 48 164 1.0 4.0 0.00 0.00 0.00 74 1014.8
20260507015558 48 0 2.0 4.0 0.00 0.00 0.00 75 1014.9
20260507015100 48 127 1.0 6.0 0.00 0.00 0.00 74 1014.8
20260507014615 48 139 1.0 6.0 0.00 0.00 0.00 74 1014.8
20260507014059 48 142 1.0 3.0 0.00 0.00 0.00 75 1014.8
20260507013558 48 90 1.0 3.0 0.00 0.00 0.00 74 1014.7
20260507013100 48 0 0.0 3.0 0.00 0.00 0.00 74 1014.8
20260507012607 48 115 0.0 4.0 0.00 0.00 0.00 74 1014.7
20260507012058 48 0 1.0 5.0 0.00 0.00 0.00 74 1014.6
20260507011558 48 117 2.0 5.0 0.00 0.00 0.00 74 1014.8
20260507011100 48 142 2.0 4.0 0.00 0.00 0.00 74 1014.8
20260507010602 48 114 1.0 5.0 0.00 0.00 0.00 73 1014.7
20260507010116 48 134 1.0 5.0 0.00 0.00 0.00 72 1014.7
20260507005557 48 139 0.0 4.0 0.00 0.00 0.00 72 1014.8
20260507005057 48 105 1.0 4.0 0.00 0.00 0.00 71 1014.7
20260507004557 48 142 1.0 5.0 0.00 0.00 0.00 71 1014.8
20260507004059 49 132 1.0 5.0 0.00 0.00 0.00 71 1014.8
20260507003559 49 115 1.0 4.0 0.00 0.00 0.00 71 1014.8
20260507003100 49 135 0.0 4.0 0.00 0.00 0.00 71 1014.9
20260507002558 49 123 1.0 5.0 0.00 0.00 0.00 70 1014.9
20260507002058 49 128 1.0 6.0 0.00 0.00 0.00 70 1014.9
20260507001606 49 129 2.0 6.0 0.00 0.00 0.00 70 1015.0
20260507001101 49 126 1.0 4.0 0.00 0.00 0.00 69 1014.9
20260507000558 49 0 1.0 4.0 0.00 0.00 0.00 69 1015.0
20260507000058 49 78 1.0 4.0 0.00 0.00 0.00 69 1014.9
20260506235558 49 90 0.0 3.0 0.00 0.00 0.00 68 1015.0
20260506235058 49 107 1.0 3.0 0.00 0.00 0.00 69 1015.1
20260506234600 49 82 2.0 3.0 0.00 0.00 0.00 69 1015.1
20260506234059 49 130 1.0 3.0 0.00 0.00 0.00 69 1015.0
20260506233559 49 0 1.0 3.0 0.00 0.00 0.00 69 1015.0
20260506233059 49 117 0.0 2.0 0.00 0.00 0.00 69 1015.0
20260506232558 49 0 1.0 5.0 0.00 0.00 0.00 69 1014.9
20260506232058 49 0 0.0 5.0 0.00 0.00 0.00 70 1014.9
20260506231600 50 132 1.0 4.0 0.00 0.00 0.00 66 1015.0
20260506231059 50 136 1.0 7.0 0.00 0.00 0.00 66 1015.0
20260506230600 50 0 2.0 7.0 0.00 0.00 0.00 65 1015.0
20260506230105 50 110 2.0 6.0 0.00 0.00 0.00 65 1014.9
20260506225558 50 0 1.0 6.0 0.00 0.00 0.00 65 1015.0
20260506225059 50 113 1.0 4.0 0.00 0.00 0.00 64 1014.9
20260506224601 50 77 1.0 4.0 0.00 0.00 0.00 63 1015.0
20260506224101 50 98 1.0 6.0 0.00 0.00 0.00 64 1014.9
20260506223559 50 105 2.0 6.0 0.00 0.00 0.00 63 1015.0
20260506223059 51 90 1.0 5.0 0.00 0.00 0.00 63 1014.9
20260506222558 51 88 1.0 6.0 0.00 0.00 0.00 62 1014.9
20260506222059 51 128 1.0 7.0 0.00 0.00 0.00 61 1014.8
20260506221601 51 103 2.0 7.0 0.00 0.00 0.00 60 1014.9
20260506221101 51 73 3.0 7.0 0.00 0.00 0.00 61 1014.7
20260506220559 51 98 2.0 7.0 0.00 0.00 0.00 61 1014.7
20260506220058 51 79 3.0 6.0 0.00 0.00 0.00 62 1014.7
20260506215559 52 127 2.0 6.0 0.00 0.00 0.00 61 1014.6
20260506215058 52 113 2.0 6.0 0.00 0.00 0.00 61 1014.7
20260506214609 52 86 1.0 6.0 0.00 0.00 0.00 60 1014.7
20260506214059 52 110 2.0 7.0 0.00 0.00 0.00 60 1014.7
20260506213559 52 57 3.0 7.0 0.00 0.00 0.00 59 1014.7
20260506213102 52 85 3.0 7.0 0.00 0.00 0.00 60 1014.6
20260506212558 52 80 3.0 6.0 0.00 0.00 0.00 59 1014.6
20260506212059 53 75 3.0 8.0 0.00 0.00 0.00 60 1014.7
20260506211558 53 57 3.0 8.0 0.00 0.00 0.00 59 1014.7
20260506211059 53 65 3.0 7.0 0.00 0.00 0.00 59 1014.5